Other Surface Observations
Issued by NWS

Home | Current Version | Previous Version | Text Only | Print | Product List | Glossary On
Versions: 1 2 3 4 5 6 7 8 9 10 11 12 13 14 15 16 17 18 19 20 21 22 23 24 25 26 27 28 29 30 31 32 33 34 35 36 37 38 39 40 41 42 43 44 45 46 47 48 49 50
000
SXUS52 KTAE 290718
OSOTAE
OSOTAE
North Florida/South Alabama/Southwest Georgia Weather Roundup
National Weather Service Tallahassee Florida
300 AM EDT TUE JUL 29 2014

Note: "fair" indicates few or no clouds below 12,000 feet with no
significant weather and/or obstructions to visibility.

!FLZ017-115-028-034-025-290800
...North Florida...

CITY           SKY/WX    TMP DP  RH WIND       PRES   REMARKS
TALLAHASSEE      N/A    N/A N/A N/A MISG        N/A
APALACHICOLA   PTCLDY    79  78  97 W7        29.93F
PERRY          CLEAR     72  70  94 CALM      29.95S
CROSS CITY       N/A     80  71  74 SW3       29.93F
HOMERVILLE     MOCLDY    79  72  78 W5        29.92S
JACKSONVILLE   MOCLDY    80  78  94 SW10      29.89S
$$

!FLZ112-006-005-002-011-290800
...Florida Panhandle...

CITY           SKY/WX    TMP DP  RH WIND       PRES   REMARKS
MARIANNA       PTCLDY    75  75 100 VRB5      29.94S
BONIFAY        PTSUNNY   75  73  93 NW3       29.95F
PANAMA CITY NW FAIR      77  74  90 NW3       29.93F
TYNDALL AFB    CLEAR     81  78  91 NW5       29.94F HX  90
TYND DRONE APT NOT AVBL
DE FUNIAK SPR  FAIR      74  71  92 NW6       29.96S
EGLIN AFB      PTCLDY    77  73  87 NW5       29.95S
DESTIN         PTCLDY    81  74  79 NW9       29.95S
HURLBURT       PTCLDY    79  70  73 N9        29.94F
CRESTVIEW      MOCLDY    75  72  90 NW5       29.97F
PENSACOLA      PTCLDY    75  73  93 NW6       29.96S
$$

!ALZ063-066-290800
...South Alabama...

CITY           SKY/WX    TMP DP  RH WIND       PRES   REMARKS
DOTHAN         CLEAR     73  70  90 NW5       29.99S
OZARK CAIRNS   CLEAR     74  71  90 NW8       29.95F
FT RUCKER HELI CLEAR     73  69  87 N5        29.95S
RUCKER HELI 3  FAIR      72  70  92 NW5       29.98F
RUCKER HELI 2  FAIR      73  70  90 NW7       29.95S
FLORALA APT    MOCLDY    74  71  91 N3        29.98F
ANDALUSIA      CLEAR     76  69  79 N5        29.97S
TROY           CLEAR     72  64  76 N7        29.98S
EUFALA         FAIR      73  66  78 NW3       29.94F
MOBILE         MOCLDY    76  71  85 N8        30.00S
$$

!GAZ120>161-290800
...Southwest and South Central Georgia...

CITY           SKY/WX    TMP DP  RH WIND       PRES   REMARKS
THOMASVILLE    FAIR      75  75 100 W5        29.94S
BAINBRIDGE     CLEAR     77  73  88 NW5       29.94F
MOODY AFB      CLEAR     76  76  99 W7        29.92S
VALDOSTA       PTCLDY    77  71  82 CALM      29.93S
MOULTRIE       CLEAR     75  72  88 W5        29.94F
BLAKELY        CLEAR     73  72  94 NW3       29.95S
ALBANY         CLEAR     72  70  93 CALM      29.95S
TIFTON         FAIR      73  70  91 W5        29.93S
FITZGERALD     FAIR      75  73  91 NW5       29.94S
CORDELE        FAIR      74  69  84 CALM      29.94R
AMERICUS       FAIR      72  64  78 N6        29.96S
$$

!GMZ750-755-770-775-290800
...Coastal and Buoy Obs...

STATION/POSITION TIME  TEMP    WIND        PRES    VSBY  WAVE
                       AIR SEA DIR/SP/G                  HT/PER
                 (UTC) (F)     (DEG/KT/KT) (MB)    (MI)  (FT/S)
KEATON BEACH     0700   83     260/  8/  9 1013.7F
CEDAR KEY        0700   85     280/ 13/ 18 1014.3F
C TOWER          0700   83     270/ 17/ 18 1014.0F
APALACHICOLA BUO 0700   85 86  260/ 17/ 21 1014.7F         5/ 6
PANAMA CITY BUOY 0650   85 85  270/ 16/ 19 1014.5F         4/ 5
MOBILE BUOY      0619   86 86  280/ 17/ 19 1014.9F
ORANGE BCH AL BU 0700   82 84  320/ 10/ 10 1014.4F         2/ 4
$$



USA.gov is the U.S. government's official web portal to all federal, state and local government web resources and services.